#timestamp,LO_Frequency,Hit,StdDev 
1502283615.3,286047002.8,N,1.1
1502283635.1,286046998.1,N,1.2
1502283655.9,286047000.5,N,1.2
1502283675.7,286047000.3,N,1.1
1502283695.6,286047000.0,N,1.1
1502283715.4,286047000.8,N,1.0
1502283735.2,286047000.8,N,1.0
1502283755.1,286047001.0,N,1.0
1502283756.0,286047001.0,N,1.0
1502283775.8,286047001.0,N,1.0
1502283795.7,286047001.0,N,1.0
1502283815.5,286047002.8,N,1.0
1502283835.3,286047000.1,N,1.0
1502283855.2,286047000.6,N,1.0
1502283875.0,286046998.1,N,1.1
1502283875.9,286046998.1,N,1.2
1502283895.8,286046998.7,N,1.2
1502283915.6,286047001.0,N,1.2
1502283935.4,286047002.4,N,1.3
1502283955.3,286047001.0,N,1.3
1502283975.1,286047000.5,N,1.2
1502283995.9,286046999.7,N,1.2
1502284015.7,286046999.7,N,1.2
1502284035.5,286047002.8,N,1.3
1502284055.4,286047000.0,N,1.2
1502284075.2,286046999.8,N,1.2
1502284095.1,286047002.6,N,1.3
1502284096.0,286047002.6,N,1.3
1502284115.8,286047002.1,N,1.4
1502284135.6,286047002.6,N,1.4
1502284155.5,286047002.7,N,1.4
1502284175.3,286047000.6,N,1.3
1502284195.2,286047000.0,N,1.3
1502284215.9,286047000.9,N,1.3
1502284235.7,286047000.0,N,1.3
1502284255.6,286046999.8,N,1.3
1502284275.4,286047000.6,N,1.3
1502284295.3,286046999.9,N,1.3
1502284315.1,286047000.2,N,1.3
1502284316.0,286047000.2,N,1.3
1502284335.8,286047002.4,N,1.4
1502284355.7,286046999.7,N,1.3
1502284375.5,286047000.2,N,1.3
1502284395.3,286047002.8,N,1.4
1502284415.2,286047002.4,N,1.3
1502284435.0,286047002.4,N,1.2
1502284435.9,286047002.4,N,1.2
1502284455.8,286047002.6,N,1.2
1502284475.6,286046999.9,N,1.2
1502284495.4,286046999.9,N,1.2
1502284515.3,286046999.7,N,1.3
1502284535.1,286047002.8,N,1.3
1502284555.9,286047002.8,N,1.3
1502284575.7,286047002.3,N,1.3
1502284595.5,286047000.0,N,1.3
1502284615.4,286047000.4,N,1.2
1502284635.2,286047000.3,N,1.2
1502284655.1,286047000.7,N,1.2
1502284656.0,286047000.7,N,1.2
1502284675.8,286047000.9,N,1.1
1502284695.6,286047000.8,N,1.1
1502284715.5,286047000.2,N,1.1
1502284735.3,286047000.4,N,1.1
1502284755.2,286047000.4,N,1.1
1502284775.9,286047000.3,N,1.1
1502284795.7,286047000.3,N,1.1
1502284815.6,286046999.9,N,1.1
1502284835.4,286046999.7,N,1.1
1502284855.3,286047000.2,N,1.1
1502284875.1,286047002.4,N,1.1
1502284876.0,286047002.4,N,1.1
1502284895.8,286047002.4,N,1.1
1502284915.7,286047002.5,N,1.1
1502284935.5,286047002.6,N,1.1
1502284955.4,286046999.8,N,1.1
1502284975.2,286046999.9,N,1.1
1502284995.0,286047001.0,N,1.1
1502284995.9,286047001.0,N,1.1
1502285015.8,286047000.1,N,1.0
1502285035.6,286047000.8,N,1.0
1502285055.4,286047000.5,N,1.0
1502285075.3,286046998.3,N,1.1
1502285095.1,286047000.5,N,1.0
1502285115.9,286047000.4,N,0.9
1502285135.7,286047001.1,N,0.9
1502285155.5,286047000.2,N,0.9
1502285175.4,286047000.6,N,0.9
1502285195.2,286046998.9,N,1.0
1502285215.1,286046999.0,N,1.0
1502285216.0,286046999.0,N,1.1
1502285235.8,286046998.6,N,1.1
1502285255.6,286046998.3,N,1.2
1502285275.5,286046999.4,N,1.2
1502285295.3,286046999.2,N,1.2
1502285315.2,286046996.9,N,1.4
1502285335.0,286046999.5,N,1.4
1502285335.9,286046999.5,N,1.4
1502285355.7,286046997.1,N,1.5
1502285375.6,286046996.5,N,1.6
1502285395.4,286046997.4,N,1.6
1502285415.3,286046999.3,N,1.5
1502285435.1,286046996.7,N,1.5
1502285455.8,286046997.9,N,1.5
1502285475.7,286046995.2,Y,0.0
1502285495.5,286046994.9,P,2.2
1502285515.4,286046995.3,N,2.0
1502285535.2,286046996.2,N,1.7
1502285555.0,286046995.4,N,1.6
1502285556.0,286046995.4,N,1.5
1502285575.8,286046997.9,N,1.5
1502285595.6,286046995.4,Y,0.0
1502285615.5,286047001.2,P,2.4
1502285635.3,286046998.3,N,2.0
1502285655.2,286046999.2,N,1.7
1502285675.9,286046999.0,N,1.6
1502285695.7,286046999.6,N,1.5
1502285715.6,286046996.5,N,1.6
1502285735.4,286046997.4,N,1.5
1502285755.2,286046997.2,N,1.5
1502285775.1,286046997.0,N,1.5
1502285776.0,286046997.0,N,1.5
1502285795.8,286046999.6,N,1.5
1502285815.7,286046997.2,N,1.4
1502285835.5,286046996.9,N,1.4
1502285855.3,286046997.2,N,1.4
1502285875.2,286046997.6,N,1.3
1502285895.0,286046995.2,Y,0.0
1502285895.9,286046995.2,P,1.4
1502285915.8,286046999.1,N,1.6
1502285935.6,286046996.8,N,1.4
1502285955.4,286046997.1,N,1.3
1502285975.3,286046999.4,N,1.4
1502285995.1,286046999.5,N,1.5
1502286015.9,286046999.6,N,1.5
1502286035.7,286046999.6,N,1.5
1502286055.5,286046997.0,N,1.5
1502286075.4,286046997.0,N,1.4
1502286095.2,286046996.8,N,1.4
1502286115.1,286046997.7,N,1.4
1502286116.0,286046997.7,N,1.3
1502286135.8,286046997.4,N,1.3
1502286155.6,286046997.4,N,1.2
1502286175.5,286046997.2,N,1.2
1502286195.3,286046997.9,N,1.2
1502286215.2,286046995.3,Y,0.0
1502286235.9,286046996.7,P,0.5
1502286255.7,286046996.8,P,0.5
1502286275.6,286046999.0,N,0.9
1502286295.4,286046998.9,N,1.0
1502286315.3,286046999.1,N,1.0
1502286335.1,286046996.6,Y,0.0
1502286336.0,286046996.6,P,0.7
1502286355.8,286046998.5,N,0.8
1502286375.7,286046998.2,N,0.7
1502286395.5,286047000.0,N,1.1
1502286415.4,286047000.3,N,1.2
1502286435.2,286047000.8,N,1.4
1502286455.0,286046998.1,N,1.3
1502286455.9,286046998.1,N,1.3
1502286475.8,286046999.4,N,1.2
1502286495.6,286046998.6,N,1.2
1502286515.4,286046999.0,N,1.1
1502286535.3,286046998.7,N,1.1
1502286555.1,286046998.7,N,1.0
1502286575.9,286046998.9,N,1.0
1502286595.7,286046999.0,N,1.0
1502286615.5,286046997.3,N,1.0
1502286635.4,286046999.5,N,1.0
1502286655.2,286046996.8,Y,0.0
1502286675.1,286046998.9,P,0.1
1502286676.0,286046998.9,P,0.1
1502286695.8,286046999.3,P,0.2
1502286715.6,286046999.1,Y,0.0
1502286735.5,286047000.7,P,0.9
1502286755.3,286046999.8,N,0.7
1502286775.2,286047001.1,N,0.8
1502286795.9,286047000.6,N,0.8
1502286815.7,286047000.2,N,0.7
1502286835.6,286047000.5,N,0.7
1502286855.4,286047002.6,Y,0.0
1502286875.3,286047000.4,P,0.1
1502286895.1,286047002.8,P,1.2
1502286915.8,286047002.6,N,1.2
1502286935.7,286046999.9,N,1.2
1502286955.5,286047000.1,N,1.2
1502286975.4,286047000.1,N,1.2
1502286995.2,286047000.4,N,1.1
1502287015.0,286047000.4,N,1.0
1502287015.9,286047000.4,N,1.0
1502287035.8,286047000.7,N,0.9
1502287055.6,286047000.1,N,0.9
1502287075.5,286046999.8,N,0.9
1502287095.3,286047000.3,N,0.9
1502287115.1,286047002.4,N,1.0
1502287135.9,286046999.9,N,1.0
1502287155.7,286047002.8,N,1.1
1502287175.5,286047002.5,N,1.1
1502287195.4,286047002.8,N,1.2
